Other Public Products
Issued by NWS Grand Forks, ND

Home | Current Version | Previous Version | Graphics & Text | Print | Product List | Glossary On
Versions: 1 2 3 4 5 6 7 8 9 10 11 12 13 14 15 16 17 18 19 20 21 22 23 24 25 26 27 28 29 30 31 32 33 34 35 36 37 38 39 40 41 42 43 44 45 46 47 48 49 50
000
FPUS83 KFGF 240831
OPUFGF
PRAIRIE TO PINES WEATHER ROUNDUP
NATIONAL WEATHER SERVICE EASTERN NORTH DAKOTA/GRAND FORKS ND
300 AM CDT SUN SEP 24 2017

 **SATELLITE DATA USED TO AUGMENT SKY COVER AT AUTOMATED STATIONS**
 *****  WEATHER ACROSS EASTERN NORTH DAKOTA  *****

CITY           SKY/WX    TMP DP  RH WIND       PRES   REMARKS
GRAND FORKS    LGT RAIN  53  53 100 N13       29.94F FOG
GRAND FORKS AF LGT RAIN  52  52 100 N14       29.96F
GRAND CITY NWS NOT AVBL
BUXTON           N/A     54  54  99 N8          N/A
DEVILS LAKE    LGT RAIN  49  48  97 N13       30.02F
FARGO          LGT RAIN  56  56 100 N7        29.89F
WAHPETON ARPT  CLOUDY    59  57  94 CALM      29.89R
$$

 *****  WEATHER ACROSS CENTRAL AND WESTERN NORTH DAKOTA  *****

CITY           SKY/WX    TMP DP  RH WIND       PRES   REMARKS
JAMESTOWN      LGT RAIN  50  49  96 N13       29.94F
BISMARCK       LGT RAIN  49  48  97 N10       30.00F
MINOT          CLOUDY    47  45  93 N10       30.06F
MINOT AFB      LGT RAIN  46  45  93 N10       30.05F
GARRISON         N/A     46  46 100 N7        30.04F
WILLISTON      CLOUDY    45  43  93 NW6       30.13S
DICKINSON      LGT RAIN  44  43  96 N12       30.02F
HETTINGER      LGT RAIN  45  42  89 NE14      30.01F
$$

 *****  OTHER OBSERVATIONS NORTHEAST NORTH DAKOTA  *****

CITY           SKY/WX    TMP DP  RH WIND       PRES   REMARKS
WALHALLA       RAIN     N/A N/A N/A N14       30.03F
LANGDON        NOT AVBL
CAVALIER       LGT RAIN  50  50 100 N13       30.00F
GRAFTON        NOT AVBL
CANDO          LGT RAIN  48  48 100 N12       30.05F
FORT TOTTEN      N/A     49  49 100 N7        29.95S
ROLLA          LGT RAIN  46  46 100 N12       30.06F
RUGBY          NOT AVBL
 ***** THE ABOVE OBSERVATIONS ARE NON NWS ARE NOT QUALITY
        CONTROLLED AND MAY MIS-REPORT RAIN FOR SNOW...
$$

 *****  OTHER OBSERVATIONS SOUTHEAST NORTH DAKOTA *****

CITY           SKY/WX    TMP DP  RH WIND       PRES   REMARKS
COOPERSTOWN    RAIN      52  52 100 N12       29.96S
VALLEY CITY    NOT AVBL
OAKES          NOT AVBL
GWINNER        CLOUDY    54  54 100 CALM      29.90F FOG
SHEYENNE NWR     N/A     55  55 100 CALM      29.95S
BUFFALO          N/A     54  52  93 W7          N/A
WYNDMERE       NOT AVBL
 ***** THE ABOVE OBSERVATIONS ARE NON NWS ARE NOT QUALITY
       CONTROLLED AND MAY MIS-REPORT RAIN FOR SNOW...
$$

  *****  WEATHER ACROSS NORTHERN MINNESOTA  *****

CITY           SKY/WX    TMP DP  RH WIND       PRES   REMARKS
FLAG ISLAND    LGT RAIN  54  52  94 NE5       29.99F
WARROAD        RAIN      55  52  88 NE10      29.98F
ROSEAU         DRIZZLE   54  48  82 NE8       29.97F
HALLOCK        RAIN      52  52 100 N9        29.98F
THF RVR FALLS  LGT RAIN  54  54 100 NE13      29.92F
HALSTAD          N/A     55  55 100 N9          N/A
FOSSTON        LGT RAIN  54  54 100 CALM      29.91S
BAUDETTE       CLOUDY    55  55 100 NE7       29.98F
WASKISH        RAIN      55  54  94 E6        29.96F
CROOKSTON      DRIZZLE   55  54  94 NE5       29.93S
$$
  *****  WEATHER ACROSS CENTRAL AND WEST MINNESOTA  *****

CITY           SKY/WX    TMP DP  RH WIND       PRES   REMARKS
BEMIDJI        CLOUDY    55  55  97 E7        29.93F
PARK RAPIDS    CLOUDY    59  57  93 SE7       29.93F
WADENA         CLOUDY    57  57 100 E5        29.93F FOG
DETROIT LAKES  MOCLDY    59  57  94 SE8       29.90F
MOORHEAD       LGT RAIN  55  55 100 N3        29.90R
FERGUS FALLS   CLOUDY    61  61 100 E8        29.88F
ELBOW LAKE     PTSUNNY   61  61  99 SE12      29.88F
MORRIS MN      NOT AVBL
STAPLES        LGT RAIN  59  59 100 E3        29.93F
WHEATON        CLOUDY    63  61  94 CALM      29.89S
$$
  *****  WEATHER ELSEWHERE ACROSS MINNESOTA  *****

CITY           SKY/WX    TMP DP  RH WIND       PRES   REMARKS
DULUTH         FAIR      64  63  96 E7        29.97F
INTRNTL FALLS  LGT RAIN  57  55  93 NE5       29.99F
ELY            CLOUDY    59  59 100 E3        30.01F
CLOQUET        FAIR      63  59  88 CALM      29.97S
BRAINERD       CLOUDY    60  60 100 CALM      29.95R
HIBBING        CLOUDY    59  59 100 CALM      29.97F
ALEXANDRIA     CLOUDY    62  60  93 E9        29.93F
SAINT CLOUD    FAIR      62  62 100 NW5       29.93S FOG
MINNEAPOLIS    FAIR      77  65  66 S10       29.94S
$$

  *****  WEATHER ACROSS SOUTH DAKOTA  *****

CITY           SKY/WX    TMP DP  RH WIND       PRES   REMARKS
SIOUX FALLS    FOG       60  60 100 E5        29.88S VSB 3/4
BROOKINGS      FAIR      59  58  96 E12       29.88F
WATERTOWN      CLOUDY    62  62 100 E7G17     29.85F
HURON          CLOUDY    55  55 100 N5        29.88F
SISSETON         N/A     57  57 100 SE5       29.86F
ABERDEEN       RAIN      54  54 100 NE9       29.89F FOG
MITCHELL       CLOUDY    57  56  96 NW8       29.89F
PIERRE         LGT RAIN  52  51  97 N6        29.90S
MOBRIDGE       LGT RAIN  52  50  93 N14       29.91F
RAPID CITY     NOT AVBL
$$

  *****  SOME WEATHER IN NEARBY STATES *****

CITY           SKY/WX    TMP DP  RH WIND       PRES   REMARKS
GLASGOW MT     CLOUDY    47  39  74 E3        30.10F
GREAT FALLS MT CLOUDY    38  32  79 SW6       30.09S
CHEYENNE WY    CLOUDY    43  42  97 CALM      29.98F FOG
SCOTTSBLUFF NE CLOUDY    46  43  89 NW7       29.98S
OMAHA NE       MOCLDY    73  64  73 S10       29.91S
DES MOINES IA  FAIR      73  64  73 SE8       29.96S
DAVENPORT IA   FAIR      67  62  84 SE6       30.05R
CHICAGO IL     FAIR      72  65  78 CALM      30.07S
EAU CLAIRE WI  FAIR      69  64  84 CALM      29.99R
LA CROSSE WI   FAIR      72  66  81 CALM      30.00S
$$

  *****  SOME NATIONAL WEATHER *****

CITY           SKY/WX    TMP DP  RH WIND       PRES   REMARKS
LA GUARDIA NY  FAIR      72  60  66 CALM      30.03S
RALEIGH NC     MOCLDY    65  63  93 CALM      30.06F
ATLANTA GA     FAIR      72  65  78 NE3       30.03S
NEW ORLEANS LA FAIR      78  72  81 VRB5      29.91R
OKLAHOMA CITY  FAIR      70  65  84 S6        29.91R
ALBUQUERQUE NM MOCLDY    60  53  77 N6        29.90R
SALT LAKE CITY CLOUDY    45  41  86 S3        29.91F
LOS ANGELES CA FAIR      61  55  81 E3        29.86R
BOISE ID       FAIR      42  34  73 SW6       30.02R
SEATTLE WA     FAIR      56  48  74 CALM      30.13S
$$

*** WEATHER ACROSS MANITOBA...SASKATCHEWAN AND ONTARIO ***
                ***ONTARIO***

CITY           SKY/WX    TMP DP  RH WIND       PRES   REMARKS
GERALDTON      CLOUDY    63  61  94 NW2       30.04R
THUNDER BAY    LGT RAIN  64  64 100 VRB2      30.00S
SIOUX LOOKOUT  DRIZZLE   55  55 100 SE3       30.06R
TORONTO        CLEAR     72  64  78 NW5       30.12R
BIG TROUT LK   CLOUDY    46  46 100 NE6       30.12F
PICKLE LAKE    NOT AVBL
DRYDEN         FOG       55  55 100 E3        30.03F VSB 3/4
KENORA         LGT RAIN  54  52  94 NE6       30.02F FOG
$$
                *** MANITOBA***

CITY           SKY/WX    TMP DP  RH WIND       PRES   REMARKS
BRANDON        LGT RAIN  46  45  93 NE6       30.11S
DAUPHIN        CLOUDY    46  46 100 N3        30.13R
ISLAND LAKE    CLOUDY    45  41  87 NE6       30.18
PILOT MOUND      N/A     48  46  93 N8          N/A
THE PAS        CLOUDY    46  45  93 E6        30.17S
THOMPSON       CLOUDY    39  37  93 NE6       30.22F
WINNIPEG       LGT RAIN  48  48 100 N7        30.04F
LYNN LAKE      CLOUDY    37  37 100 NE3       30.21F
CHURCHILL      LGT RAIN  37  36  93 SE5       30.27F
GILLAM         CLOUDY    39  37  93 NE9       30.23F
$$
                ***SASKATCHEWAN***

CITY           SKY/WX    TMP DP  RH WIND       PRES   REMARKS
ESTEVAN        LGT RAIN  43  43 100 NW5       30.13F
KINDERSLEY     MOCLDY    37  36  93 NW3       30.12F
LLOYDMINSTER   CLOUDY    41  37  87 S9        30.11S
PRINCE ALBERT  CLOUDY    37  36  93 CALM      30.16S
REGINA         CLOUDY    39  36  87 CALM      30.14F
YORKTON        CLOUDY    45  41  87 NW5       30.14F



USA.gov is the U.S. government's official web portal to all federal, state and local government web resources and services.